[[{"header":{"parameterUnit":"m.s-1","parameterCategory":1,"la1":30.2991,"la2":30.254,"lo1":-89.0895,"lo2":-89.0444,"dy":0.0017,"dx":0.0017,"nx":28,"ny":28,"refTime":"2025-02-05T03:00:00:Z","depth":0,"parameterNumber":2,"parameterNumberName":"U-component_of_WINDS"},"data":[0,0,0,0,0,0,0,0,0,0,0,0,0,0,0,0,0,0,0,0,0,0,0,0,0,0,0,0,0,0,0,0,0,0,0,0,0,0,0,0,0,0,0,0,0,0,0,0,0,0,0,0,0,0,0,0,0,0,-2.0276,-2.0276,0,-2.03,-2.03,-2.03,-2.0283,-2.0283,-2.0282,-2.0281,-2.0305,-2.0306,-2.0307,0,0,0,0,0,0,0,0,0,0,0,0,0,-2.0216,-2.0217,-2.0276,-2.0276,-2.0277,-2.03,-2.03,-2.0301,-2.0283,-2.0283,-2.0282,-2.0281,-2.0304,-2.0306,-2.0307,0,0,0,0,0,0,0,0,0,0,0,0,0,-2.0241,-2.0217,-2.0276,-2.0271,-2.0271,-2.03,-2.03,-2.0301,-2.0284,-2.0283,-2.0281,-2.028,-2.0304,-2.0306,-2.0308,-2.0343,0,0,-2.0314,-2.0315,0,0,0,0,0,0,0,0,-2.024,-2.0243,-2.0272,-2.0271,-2.0271,-2.0288,-2.0288,-2.0315,-2.0284,-2.0279,-2.0281,-2.028,-2.03,-2.0302,-2.0309,-2.0344,-2.0345,-2.0314,-2.0315,-2.0316,-2.0316,0,0,0,0,0,0,0,-2.0238,-2.0242,-2.0286,-2.0272,-2.0272,-2.0268,-2.027,-2.0293,-2.0295,-2.0279,-2.0278,-2.0281,-2.03,-2.0307,-2.0309,-2.0345,-2.0314,-2.0316,-2.0317,-2.0318,-2.0409,-2.0411,0,0,0,0,0,0,-2.0237,-2.0241,-2.0285,-2.0286,-2.0252,-2.027,-2.0272,-2.0283,-2.0295,-2.0296,-2.0282,-2.028,-2.0304,-2.0307,-2.031,-2.0351,-2.0316,-2.0318,-2.0319,-2.0408,-2.041,-2.0411,0,0,0,0,0,0,-2.0236,-2.0241,-2.0284,-2.0263,-2.0268,-2.0272,-2.0285,-2.0285,-2.0292,-2.0297,-2.0298,-2.0289,-2.0303,-2.0307,-2.0335,-2.0352,-2.0319,-2.032,-2.0407,-2.0409,-2.041,-2.0434,0,0,0,0,0,0,-2.0234,-2.024,-2.0254,-2.0264,-2.027,-2.0308,-2.0286,-2.0286,-2.0296,-2.0293,-2.0304,-2.0305,-2.0303,-2.0332,-2.0337,-2.0354,-2.0322,-2.0405,-2.0408,-2.041,-2.0432,-2.0436,-2.0441,0,0,0,0,0,-2.0232,-2.0259,-2.0255,-2.026,-2.0286,-2.0309,-2.0312,-2.031,-2.0297,-2.031,-2.0314,-2.0304,-2.035,-2.0335,-2.034,-2.0358,-2.0404,-2.0407,-2.041,-2.043,-2.0435,-2.044,0,0,0,0,0,0,-2.0251,-2.0261,-2.0255,-2.0287,-2.0297,-2.0306,-2.0323,-2.0316,-2.033,-2.0327,-2.0324,-2.0326,-2.0355,-2.0359,-2.0343,-2.0393,-2.0375,-2.0379,-2.0388,-2.0394,-2.0398,-2.0396,-2.0324,0,0,0,0,0,-2.0259,-2.0277,-2.0284,-2.0311,-2.0317,-2.0319,-2.0329,-2.0326,-2.0337,-2.0341,-2.0346,-2.0357,-2.0373,-2.0384,-2.04,-2.0433,-2.0435,-2.0448,-2.0453,-2.0456,-2.0459,-2.0477,-2.0483,-2.042,-2.042,-2.042,0,0,-2.0275,-2.0283,-2.0294,-2.0316,-2.0323,-2.0341,-2.0323,-2.0343,-2.0356,-2.0344,-2.037,-2.0374,-2.0386,-2.0416,-2.043,-2.0421,-2.0477,-2.046,-2.0463,-2.0464,-2.048,-2.0486,-2.0491,-2.0422,-2.0422,-2.0421,0,0,-2.0314,-2.0322,-2.0346,-2.0354,-2.0366,-2.0367,-2.0373,-2.0383,-2.0386,-2.0412,-2.0403,-2.0419,-2.0448,-2.0456,-2.0464,-2.0507,-2.0499,-2.0513,-2.0535,-2.0552,-2.0557,-2.0561,-2.0576,-2.0581,-2.0516,-2.0516,-2.0516,0,-2.0333,-2.036,-2.0358,-2.0379,-2.0388,-2.0379,-2.0402,-2.041,-2.0427,-2.0434,-2.0424,-2.046,-2.0467,-2.0499,-2.0509,-2.0517,-2.0522,-2.051,-2.0557,-2.0561,-2.0565,-2.0578,-2.0584,-2.0517,-2.0517,-2.0517,-2.0517,0,-2.0382,-2.0401,-2.0419,-2.0435,-2.0447,-2.0469,-2.047,-2.0482,-2.0479,-2.0481,-2.0508,-2.0517,-2.0533,-2.0541,-2.0538,-2.0573,-2.0567,-2.0557,-2.0539,-2.0572,-2.0585,-2.059,-2.052,-2.0519,-2.0519,-2.0518,0,0,-2.0432,-2.0448,-2.0454,-2.0461,-2.0475,-2.0489,-2.0511,-2.0528,-2.0538,-2.055,-2.0568,-2.0593,-2.0584,-2.0593,-2.0591,-2.0607,-2.0639,-2.0595,-2.0595,-2.0602,-2.0677,-2.0683,-2.0689,-2.0635,-2.0636,-2.0637,-2.0676,0,-2.0471,-2.0509,-2.0508,-2.0543,-2.056,-2.0552,-2.0571,-2.0581,-2.0584,-2.0599,-2.0603,-2.062,-2.0608,-2.0613,-2.0628,-2.0632,-2.0654,-2.063,-2.065,-2.0651,-2.0646,-2.0696,-2.0703,-2.0739,-2.0681,-2.0682,-2.0682,0,-2.052,-2.0534,-2.0571,-2.0582,-2.0589,-2.0606,-2.0621,-2.0636,-2.0648,-2.0649,-2.066,-2.0656,-2.0678,-2.066,-2.069,-2.0674,-2.0682,-2.0686,-2.0687,-2.0688,-2.0667,-2.0697,-2.0751,-2.0756,-2.069,-2.069,-2.0689,0,-2.0552,-2.058,-2.0605,-2.0612,-2.0625,-2.0637,-2.0644,-2.0654,-2.0664,-2.0678,-2.0685,-2.0701,-2.0709,-2.0722,-2.0722,-2.071,-2.0752,-2.0735,-2.0753,-2.0753,-2.0761,-2.076,-2.0816,-2.077,-2.077,-2.0769,-2.0769,0,-2.0594,-2.0616,-2.0619,-2.0635,-2.066,-2.0659,-2.0684,-2.0689,-2.0699,-2.0715,-2.071,-2.0725,-2.0725,-2.0741,-2.0742,-2.0766,-2.077,-2.0771,-2.0771,-2.0771,-2.077,-2.0775,-2.0772,-2.0771,-2.0771,-2.077,-2.077,0,-2.0632,-2.0635,-2.0662,-2.0673,-2.0676,-2.0694,-2.0703,-2.0718,-2.0722,-2.0742,-2.0747,-2.0752,-2.077,-2.0773,-2.0794,-2.0794,-2.0823,-2.0821,-2.0819,-2.0818,-2.0836,-2.0834,-2.0895,-2.0903,-2.0853,-2.0853,-2.0854,0,-2.0658,-2.0675,-2.0688,-2.0698,-2.0705,-2.0722,-2.0733,-2.0734,-2.0745,-2.076,-2.0772,-2.079,-2.0804,-2.0834,-2.0839,-2.0856,-2.0853,-2.0873,-2.0855,-2.0855,-2.0852,-2.085,-2.0851,-2.0876,-2.0877,-2.0877,-2.0878,0,-2.0703,-2.0704,-2.0719,-2.0735,-2.0748,-2.0761,-2.0773,-2.0782,-2.0784,-2.0797,-2.0816,-2.0827,-2.0849,-2.0866,-2.0883,-2.0889,-2.0883,-2.0884,-2.0889,-2.0888,-2.0885,-2.0886,-2.0827,-2.0882,-2.0881,-2.0881,-2.0881,-2.0881,-2.0735,-2.0749,-2.0761,-2.0778,-2.0787,-2.0799,-2.0813,-2.0819,-2.0834,-2.0852,-2.0852,-2.0872,-2.0884,-2.0905,-2.0913,-2.0929,-2.0922,-2.0929,-2.0931,-2.0932,-2.0933,-2.0885,-2.0932,-2.0932,-2.0932,-2.0932,-2.0932,0,-2.0778,-2.0786,-2.0802,-2.0819,-2.0832,-2.0827,-2.084,-2.0852,-2.087,-2.0882,-2.0896,-2.0917,-2.0935,-2.0942,-2.0959,-2.097,-2.0968,-2.0974,-2.0973,-2.0974,-2.0939,-2.0932,-2.0976,-2.0976,-2.0976,-2.0976,-2.0976,-2.0976,-2.0802,-2.0827,-2.0829,-2.0858,-2.0865,-2.0885,-2.0893,-2.0904,-2.0913,-2.0937,-2.0951,-2.0956,-2.0966,-2.0984,-2.0999,-2.1001,-2.1007,-2.1014,-2.1015,-2.0981,-2.0977,-2.0972,-2.0966,-2.1016,-2.1016,-2.1048,-2.1048,-2.1049]},{"header":{"parameterUnit":"m.s-1","parameterCategory":1,"la1":30.2991,"la2":30.254,"lo1":-89.0895,"lo2":-89.0444,"dy":0.0017,"dx":0.0017,"nx":28,"ny":28,"refTime":"2025-02-05T03:00:00:Z","depth":0,"parameterNumber":3,"parameterNumberName":"V-component_of_WINDS"},"data":[0,0,0,0,0,0,0,0,0,0,0,0,0,0,0,0,0,0,0,0,0,0,0,0,0,0,0,0,0,0,0,0,0,0,0,0,0,0,0,0,0,0,0,0,0,0,0,0,0,0,0,0,0,0,0,0,0,0,2.4481,2.4481,0,2.4474,2.4474,2.4474,2.4457,2.4456,2.4456,2.4456,2.4448,2.4448,2.4448,0,0,0,0,0,0,0,0,0,0,0,0,0,2.448,2.448,2.4481,2.4481,2.4481,2.4474,2.4474,2.4474,2.4457,2.4456,2.4456,2.4456,2.4448,2.4448,2.4448,0,0,0,0,0,0,0,0,0,0,0,0,0,2.4477,2.448,2.4481,2.4472,2.4471,2.4474,2.4474,2.4474,2.4457,2.4456,2.4456,2.4455,2.4448,2.4448,2.4448,2.446,0,0,2.4448,2.4449,0,0,0,0,0,0,0,0,2.4477,2.4477,2.4473,2.4472,2.4471,2.4466,2.447,2.4469,2.4457,2.4462,2.4456,2.4455,2.4454,2.4454,2.4453,2.4459,2.4459,2.4448,2.4449,2.4449,2.4449,0,0,0,0,0,0,0,2.4478,2.4477,2.4478,2.4473,2.4472,2.4468,2.4467,2.447,2.4461,2.4462,2.446,2.446,2.4453,2.4453,2.4453,2.4459,2.4448,2.4449,2.4449,2.4449,2.4475,2.4475,0,0,0,0,0,0,2.4479,2.4478,2.4479,2.4478,2.4473,2.4468,2.4467,2.4468,2.4461,2.446,2.446,2.4459,2.4453,2.4453,2.4453,2.4467,2.4449,2.4449,2.4449,2.4474,2.4475,2.4476,0,0,0,0,0,0,2.4479,2.4479,2.4479,2.4478,2.4477,2.4469,2.447,2.4468,2.4468,2.446,2.4458,2.4462,2.4453,2.4453,2.4458,2.4466,2.4449,2.4449,2.4474,2.4475,2.4475,2.4495,0,0,0,0,0,0,2.4479,2.448,2.4484,2.4478,2.4477,2.4485,2.447,2.4468,2.4469,2.4467,2.4461,2.446,2.4452,2.4458,2.4459,2.4466,2.4449,2.4473,2.4474,2.4475,2.4493,2.4496,2.4498,0,0,0,0,0,2.4479,2.4489,2.4484,2.4484,2.4483,2.4485,2.4485,2.4477,2.4469,2.4474,2.4469,2.446,2.4465,2.4459,2.4459,2.4467,2.4472,2.4474,2.4475,2.4492,2.4496,2.4498,0,0,0,0,0,0,2.4496,2.4488,2.4483,2.4491,2.4489,2.4482,2.4488,2.448,2.448,2.4478,2.4468,2.4467,2.4474,2.4471,2.4464,2.4478,2.4467,2.4469,2.448,2.4484,2.4486,2.4487,2.4449,0,0,0,0,0,2.4501,2.4504,2.4497,2.4505,2.4504,2.4496,2.4497,2.4491,2.4488,2.4487,2.4482,2.448,2.4481,2.4482,2.4483,2.4493,2.4491,2.4498,2.4501,2.4503,2.4504,2.451,2.4513,2.448,2.448,2.448,0,0,2.4511,2.4507,2.4509,2.4508,2.4506,2.4509,2.4495,2.4499,2.4501,2.4487,2.4493,2.4489,2.4486,2.4494,2.4498,2.4492,2.4513,2.4505,2.4506,2.4507,2.4512,2.4515,2.4518,2.4481,2.4481,2.4481,0,0,2.4531,2.4528,2.4534,2.4533,2.4529,2.4524,2.4526,2.452,2.4518,2.4523,2.4513,2.4515,2.4517,2.4516,2.4515,2.4535,2.4527,2.4535,2.4549,2.4555,2.4557,2.456,2.4567,2.457,2.4536,2.4536,2.4537,0,2.4543,2.4548,2.4539,2.4544,2.4544,2.4531,2.4538,2.4537,2.4534,2.4534,2.4528,2.4531,2.4528,2.4536,2.4541,2.454,2.4542,2.4536,2.4558,2.456,2.4562,2.4569,2.4572,2.4538,2.4537,2.4537,2.4537,0,2.4564,2.4567,2.4573,2.4571,2.4572,2.4577,2.4569,2.4571,2.4565,2.4561,2.4566,2.4562,2.4562,2.4563,2.4557,2.4571,2.4567,2.4559,2.4548,2.4566,2.4573,2.4576,2.4539,2.4539,2.4538,2.4538,0,0,2.4594,2.4587,2.459,2.4589,2.4585,2.4587,2.4593,2.4593,2.4595,2.4593,2.4598,2.46,2.4593,2.4592,2.4586,2.4591,2.4608,2.4582,2.4582,2.4588,2.4623,2.463,2.4633,2.4602,2.4603,2.4603,2.4624,0,2.4613,2.4622,2.4615,2.4625,2.4628,2.4617,2.4622,2.462,2.4616,2.4618,2.4613,2.4615,2.4605,2.4605,2.4609,2.4605,2.4615,2.4603,2.4607,2.4607,2.4609,2.4636,2.4643,2.4663,2.4626,2.4627,2.4627,0,2.4637,2.4637,2.4648,2.4644,2.4645,2.4649,2.4649,2.4651,2.4649,2.4645,2.4645,2.4637,2.4642,2.4631,2.4638,2.4631,2.4632,2.463,2.463,2.4631,2.4618,2.4638,2.4669,2.4672,2.4631,2.463,2.463,0,2.4659,2.4661,2.4669,2.4668,2.4663,2.4667,2.4665,2.4662,2.4663,2.4662,2.4663,2.4663,2.4664,2.4664,2.4657,2.4649,2.4665,2.4653,2.4663,2.4663,2.4667,2.4667,2.4699,2.4667,2.4667,2.4667,2.4667,0,2.4681,2.4689,2.4679,2.4683,2.4691,2.4682,2.469,2.4687,2.4685,2.4688,2.4678,2.4682,2.4672,2.4675,2.4669,2.4676,2.4676,2.4674,2.4672,2.4675,2.4675,2.4676,2.4675,2.4668,2.4667,2.4667,2.4667,0,2.4707,2.4701,2.4708,2.4703,2.4702,2.4708,2.4703,2.4707,2.4703,2.4708,2.4708,2.4701,2.4704,2.4696,2.4698,2.4694,2.4705,2.47,2.4706,2.4705,2.4715,2.4715,2.4749,2.4753,2.4718,2.4718,2.4718,0,2.4723,2.4728,2.4724,2.4726,2.4724,2.4727,2.4728,2.472,2.4721,2.4719,2.4724,2.4726,2.4727,2.4732,2.4726,2.4728,2.4724,2.4736,2.4724,2.4727,2.4725,2.4725,2.4726,2.4739,2.4739,2.4739,2.474,0,2.4751,2.4747,2.4749,2.475,2.4752,2.4752,2.4752,2.4754,2.4745,2.4747,2.475,2.4751,2.4752,2.4755,2.4755,2.4753,2.4745,2.4743,2.4746,2.4749,2.4752,2.4751,2.4713,2.4743,2.4742,2.4742,2.4742,2.4742,2.4772,2.4777,2.4775,2.4777,2.4776,2.4776,2.478,2.4776,2.4778,2.4779,2.4774,2.4778,2.4776,2.4775,2.4774,2.4777,2.4772,2.4775,2.4776,2.4777,2.478,2.4751,2.4777,2.4777,2.4777,2.4777,2.4777,0,2.48,2.4799,2.4801,2.4801,2.4803,2.4796,2.4795,2.4797,2.4801,2.48,2.4801,2.4805,2.4807,2.4802,2.4804,2.4807,2.4804,2.4808,2.4808,2.4808,2.4784,2.4782,2.4811,2.4811,2.4811,2.4811,2.4811,2.4811,2.4815,2.4823,2.482,2.4827,2.4825,2.4829,2.4829,2.4829,2.4828,2.4833,2.4835,2.4832,2.4829,2.483,2.4832,2.4831,2.4832,2.4838,2.4835,2.4813,2.481,2.4806,2.4805,2.4838,2.4838,2.4859,2.4859,2.4859]}]]